WX8ASH-13 Weather Reports


Display with metric or nautical units.
time (UTC)temp
F
wind
direction
speed
MPH
gust
MPH
rain 1hr
in
rain 24hr
in
rain mn
in
humidity
%
barometer
mb
20260505090030 64 294 4.0 21.0 0.00 0.00 0.00 69 1006.1
20260505085525 64 288 8.0 21.0 0.00 0.00 0.00 68 1005.9
20260505085026 64 290 3.0 12.0 0.00 0.00 0.00 68 1005.9
20260505084527 65 301 1.0 12.0 0.00 0.00 0.00 68 1005.8
20260505084025 65 281 2.0 13.0 0.00 0.00 0.00 67 1005.7
20260505083528 65 259 6.0 13.0 0.00 0.00 0.00 67 1005.7
20260505083025 65 249 1.0 13.0 0.00 0.00 0.00 66 1005.6
20260505082527 66 281 6.0 12.0 0.00 0.00 0.00 65 1005.7
20260505082024 66 235 2.0 12.0 0.00 0.00 0.00 64 1005.5
20260505081527 67 270 5.0 16.0 0.00 0.00 0.00 63 1005.5
20260505081024 67 93 1.0 16.0 0.00 0.00 0.00 62 1005.5
20260505080526 67 222 1.0 16.0 0.00 0.00 0.00 61 1005.5
20260505080024 67 273 9.0 24.0 0.00 0.00 0.00 61 1005.5
20260505075524 67 260 3.0 24.0 0.00 0.00 0.00 61 1005.5
20260505075026 67 257 4.0 24.0 0.00 0.00 0.00 62 1005.4
20260505074523 67 295 1.0 19.0 0.00 0.00 0.00 62 1005.2
20260505074025 67 330 3.0 19.0 0.00 0.00 0.00 61 1005.2
20260505073523 67 301 2.0 9.0 0.00 0.00 0.00 62 1005.0
20260505073026 67 293 3.0 10.0 0.00 0.00 0.00 61 1005.0
20260505072523 67 302 0.0 10.0 0.00 0.00 0.00 62 1004.9
20260505072023 67 309 2.0 11.0 0.00 0.00 0.00 62 1004.8
20260505071525 66 277 2.0 11.0 0.00 0.00 0.00 63 1004.9
20260505071022 66 309 3.0 11.0 0.00 0.00 0.00 63 1004.8
20260505070523 66 321 2.0 11.0 0.00 0.00 0.00 64 1004.8
20260505070024 66 274 4.0 12.0 0.00 0.00 0.00 65 1004.7
20260505065522 66 236 5.0 12.0 0.00 0.00 0.00 65 1004.7
20260505065022 66 187 0.0 12.0 0.00 0.00 0.00 65 1004.7
20260505064524 66 295 1.0 10.0 0.00 0.00 0.00 65 1004.8
20260505064021 66 238 6.0 11.0 0.00 0.00 0.00 66 1004.8
20260505063522 66 225 0.0 11.0 0.00 0.00 0.00 66 1004.9
20260505063025 66 232 4.0 11.0 0.00 0.00 0.00 66 1005.0
20260505062521 66 298 4.0 11.0 0.00 0.00 0.00 66 1004.9
20260505062024 66 231 2.0 11.0 0.00 0.00 0.00 67 1005.0
20260505061521 66 283 4.0 12.0 0.00 0.00 0.00 67 1005.0
20260505061020 66 267 0.0 12.0 0.00 0.00 0.00 67 1005.0
20260505060524 66 238 4.0 12.0 0.00 0.00 0.00 67 1004.9
20260505060021 65 242 3.0 10.0 0.00 0.00 0.00 67 1005.2
20260505055521 65 214 1.0 11.0 0.00 0.00 0.00 67 1005.2
20260505055022 65 322 0.0 11.0 0.00 0.00 0.00 67 1005.2
20260505054520 65 231 1.0 11.0 0.00 0.00 0.00 67 1005.4
20260505054022 65 193 0.0 10.0 0.00 0.00 0.00 68 1005.5
20260505053520 65 214 2.0 10.0 0.00 0.00 0.00 68 1005.5
20260505053020 65 256 1.0 10.0 0.00 0.00 0.00 68 1005.6
20260505052522 65 225 4.0 10.0 0.00 0.00 0.00 68 1005.7
20260505052019 65 302 0.0 14.0 0.00 0.00 0.00 69 1005.7
20260505051520 65 284 4.0 14.0 0.00 0.00 0.00 69 1005.8
20260505051022 65 235 2.0 14.0 0.00 0.00 0.00 69 1005.8
20260505050519 65 285 3.0 11.0 0.00 0.00 0.00 69 1005.8
20260505041517 65 252 0.0 7.0 0.00 0.00 0.00 71 1006.0
20260505041019 64 201 1.0 7.0 0.00 0.00 0.00 71 1006.0
20260505040518 64 278 0.0 6.0 0.00 0.00 0.00 72 1006.0
20260505040017 65 232 0.0 8.0 0.00 0.00 0.00 71 1005.9
20260505035517 64 233 0.0 8.0 0.00 0.00 0.00 71 1006.0
20260505035019 65 153 0.0 6.0 0.00 0.00 0.00 71 1006.1
20260505034516 65 271 0.0 6.0 0.00 0.00 0.00 71 1006.1
20260505034016 65 218 3.0 8.0 0.00 0.00 0.00 70 1006.0
20260505033517 65 235 2.0 11.0 0.00 0.00 0.00 70 1006.1
20260505033016 65 183 0.0 11.0 0.00 0.00 0.00 70 1006.1
20260505032516 65 238 1.0 12.0 0.00 0.00 0.00 71 1006.1
20260505032016 65 191 0.0 12.0 0.00 0.00 0.00 71 1006.1
20260505031517 65 260 0.0 12.0 0.00 0.00 0.00 71 1006.1
20260505031016 65 253 0.0 13.0 0.00 0.00 0.00 71 1006.2
20260505030515 65 163 4.0 13.0 0.00 0.00 0.00 71 1006.1
20260505030047 65 222 5.0 13.0 0.00 0.00 0.00 71 1006.2
20260505025518 65 195 5.0 13.0 0.00 0.00 0.00 71 1006.3
20260505025015 65 191 8.0 7.0 0.00 0.00 0.00 71 1006.3
20260505024515 65 226 1.0 9.0 0.00 0.00 0.00 71 1006.3
20260505024017 65 295 2.0 9.0 0.00 0.00 0.00 71 1006.3
20260505023544 65 246 1.0 9.0 0.00 0.00 0.00 71 1006.1
20260505023047 65 228 1.0 9.0 0.00 0.00 0.00 71 1006.2
20260505022544 65 158 0.0 9.0 0.00 0.00 0.00 71 1006.2
20260505022047 65 229 6.0 9.0 0.00 0.00 0.00 70 1006.2
20260505021544 65 239 4.0 9.0 0.00 0.00 0.00 70 1006.1
20260505021044 65 278 0.0 8.0 0.00 0.00 0.00 69 1006.1
20260505020544 65 160 1.0 8.0 0.00 0.00 0.00 69 1006.2
20260505020044 65 283 4.0 7.0 0.00 0.00 0.00 68 1006.1
20260505015545 65 148 0.0 10.0 0.00 0.00 0.00 68 1006.0
20260505015043 65 238 3.0 10.0 0.00 0.00 0.00 68 1006.1
20260505014543 65 231 2.0 10.0 0.00 0.00 0.00 67 1006.1
20260505014045 66 262 0.0 9.0 0.00 0.00 0.00 66 1006.2
20260505013542 66 176 1.0 9.0 0.00 0.00 0.00 66 1006.2
20260505013044 66 266 0.0 9.0 0.00 0.00 0.00 65 1006.2
20260505012542 66 129 0.0 8.0 0.00 0.00 0.00 65 1006.3
20260505012043 66 231 3.0 7.0 0.00 0.00 0.00 65 1006.3
20260505011544 66 215 0.0 7.0 0.00 0.00 0.00 64 1006.2
20260505011041 66 231 0.0 6.0 0.00 0.00 0.00 64 1006.2
20260505010542 66 285 0.0 8.0 0.00 0.00 0.00 63 1006.2
20260505010046 66 273 0.0 8.0 0.00 0.00 0.00 63 1006.1
20260505005541 67 263 6.0 8.0 0.00 0.00 0.00 63 1006.1
20260505005042 67 203 5.0 8.0 0.00 0.00 0.00 62 1006.1
20260505004543 67 225 0.0 11.0 0.00 0.00 0.00 62 1006.0
20260505004041 67 215 0.0 11.0 0.00 0.00 0.00 61 1006.0
20260505003541 67 219 2.0 11.0 0.00 0.00 0.00 61 1006.1
20260505003041 68 285 2.0 10.0 0.00 0.00 0.00 60 1006.0
20260505002542 68 249 0.0 14.0 0.00 0.00 0.00 59 1006.0
20260505002042 68 252 2.0 14.0 0.00 0.00 0.00 59 1005.9
20260505001540 68 255 2.0 16.0 0.00 0.00 0.00 58 1005.9
20260505001040 69 273 2.0 16.0 0.00 0.00 0.00 57 1005.9
20260505000540 69 245 6.0 16.0 0.00 0.00 0.00 56 1005.9
20260505000041 69 207 5.0 15.0 0.00 0.00 0.00 55 1005.8
20260504235540 70 277 5.0 15.0 0.00 0.00 0.00 55 1005.7
20260504235039 70 277 5.0 14.0 0.00 0.00 0.00 53 1005.6
20260504234539 70 242 1.0 14.0 0.00 0.00 0.00 52 1005.4
20260504234041 70 278 5.0 14.0 0.00 0.00 0.00 52 1005.2
20260504233539 70 273 2.0 12.0 0.00 0.00 0.00 52 1005.2
20260504233039 71 214 4.0 10.0 0.00 0.00 0.00 53 1005.0
20260504232541 71 280 3.0 11.0 0.00 0.00 0.00 52 1004.9
20260504232039 71 304 0.0 11.0 0.00 0.00 0.00 53 1004.9
20260504231538 71 280 1.0 11.0 0.00 0.00 0.00 52 1004.9
20260504231038 71 264 0.0 10.0 0.00 0.00 0.00 52 1005.0
20260504230538 71 269 1.0 11.0 0.00 0.00 0.00 53 1005.2
20260504230040 71 271 4.0 15.0 0.00 0.00 0.00 53 1005.4
20260504225538 70 277 2.0 15.0 0.00 0.00 0.00 54 1005.4
20260504225038 70 276 3.0 15.0 0.00 0.00 0.00 55 1005.4
20260504224538 71 225 3.0 11.0 0.00 0.00 0.00 55 1005.6
20260504224038 71 295 7.0 17.0 0.00 0.00 0.00 55 1005.7
20260504223538 71 256 2.0 17.0 0.00 0.00 0.00 54 1005.7
20260504223038 72 277 9.0 17.0 0.00 0.00 0.00 53 1005.6
20260504222537 72 273 0.0 22.0 0.00 0.00 0.00 55 1005.7
20260504222036 71 273 6.0 22.0 0.00 0.00 0.00 54 1005.6
20260504221537 71 276 0.0 22.0 0.00 0.00 0.00 55 1005.7
20260504221037 72 284 9.0 15.0 0.00 0.00 0.00 54 1005.8
20260504220538 72 297 7.0 15.0 0.00 0.00 0.00 54 1005.7
20260504220037 72 259 4.0 18.0 0.00 0.00 0.00 53 1005.8
20260504215536 72 325 2.0 27.0 0.00 0.00 0.00 55 1005.9
20260504215036 72 295 3.0 27.0 0.00 0.00 0.00 53 1005.8
20260504214536 72 198 18.0 27.0 0.00 0.00 0.00 52 1005.9
20260504214037 72 273 5.0 23.0 0.00 0.00 0.00 53 1005.8
20260504213536 73 235 0.0 23.0 0.00 0.00 0.00 53 1005.7
20260504213036 72 215 4.0 22.0 0.00 0.00 0.00 54 1005.7
20260504212535 72 257 4.0 22.0 0.00 0.00 0.00 54 1005.7
20260504212035 72 238 10.0 22.0 0.00 0.00 0.00 53 1005.8
20260504211536 72 280 1.0 16.0 0.00 0.00 0.00 54 1005.7
20260504211035 72 262 0.0 13.0 0.00 0.00 0.00 54 1005.7
20260504210534 73 267 4.0 13.0 0.00 0.00 0.00 54 1005.7
20260504210034 73 236 1.0 19.0 0.00 0.00 0.00 52 1005.7
20260504205534 73 297 5.0 19.0 0.00 0.00 0.00 53 1005.7
20260504205034 72 250 4.0 19.0 0.00 0.00 0.00 54 1005.8
20260504204534 72 252 2.0 15.0 0.00 0.00 0.00 54 1005.9
20260504204034 72 246 1.0 22.0 0.00 0.00 0.00 53 1006.1
20260504203534 73 267 5.0 22.0 0.00 0.00 0.00 53 1006.1
20260504203035 72 225 0.0 22.0 0.00 0.00 0.00 55 1006.1
20260504202534 72 162 13.0 17.0 0.00 0.00 0.00 54 1006.2
20260504202033 72 288 6.0 11.0 0.00 0.00 0.00 53 1006.3
20260504201533 72 305 8.0 11.0 0.00 0.00 0.00 53 1006.3
20260504201033 73 284 3.0 11.0 0.00 0.00 0.00 53 1006.3
20260504200533 73 325 2.0 9.0 0.00 0.00 0.00 52 1006.4
20260504200033 73 283 3.0 9.0 0.00 0.00 0.00 53 1006.4
20260504195532 73 238 3.0 9.0 0.00 0.00 0.00 53 1006.4
20260504195032 73 267 0.0 9.0 0.00 0.00 0.00 54 1006.5
20260504194532 73 255 2.0 9.0 0.00 0.00 0.00 53 1006.5
20260504194032 73 269 6.0 10.0 0.00 0.00 0.00 53 1006.7
20260504193532 73 290 4.0 10.0 0.00 0.00 0.00 52 1006.8
20260504193032 73 201 2.0 10.0 0.00 0.00 0.00 53 1006.8
20260504192534 73 281 3.0 9.0 0.00 0.00 0.00 51 1006.8
20260504192033 73 267 0.0 13.0 0.00 0.00 0.00 53 1006.8
20260504191532 73 302 4.0 13.0 0.00 0.00 0.00 51 1006.9
20260504191032 73 277 3.0 13.0 0.00 0.00 0.00 52 1006.9
20260504190532 73 291 0.0 13.0 0.00 0.00 0.00 51 1006.9
20260504190031 73 257 1.0 13.0 0.00 0.00 0.00 51 1007.0
20260504185531 73 243 4.0 15.0 0.00 0.00 0.00 52 1007.1
20260504185031 72 252 5.0 15.0 0.00 0.00 0.00 54 1007.1
20260504184531 73 287 3.0 15.0 0.00 0.00 0.00 53 1007.2
20260504184031 73 259 7.0 13.0 0.00 0.00 0.00 52 1007.6
20260504183530 73 273 1.0 11.0 0.00 0.00 0.00 54 1007.7
20260504183031 73 250 7.0 11.0 0.00 0.00 0.00 53 1007.7
20260504182530 72 101 0.0 11.0 0.00 0.00 0.00 55 1007.7
20260504182031 72 218 1.0 11.0 0.00 0.00 0.00 56 1007.8
20260504181531 72 287 4.0 11.0 0.00 0.00 0.00 54 1007.8
20260504181030 71 149 0.0 9.0 0.00 0.00 0.00 56 1007.7
20260504180530 71 285 6.0 15.0 0.00 0.00 0.00 56 1007.7
20260504180029 71 291 3.0 15.0 0.00 0.00 0.00 55 1007.8
20260504175529 71 212 0.0 15.0 0.00 0.00 0.00 54 1007.8
20260504175029 71 187 5.0 13.0 0.00 0.00 0.00 55 1007.9
20260504174528 70 263 1.0 13.0 0.00 0.00 0.00 57 1008.0
20260504174028 70 148 1.0 13.0 0.00 0.00 0.00 56 1008.0
20260504173528 71 293 5.0 12.0 0.00 0.00 0.00 55 1008.0
20260504173028 71 273 0.0 12.0 0.00 0.00 0.00 55 1008.1
20260504172528 70 240 2.0 12.0 0.00 0.00 0.00 55 1008.1
20260504172028 70 295 2.0 12.0 0.00 0.00 0.00 55 1008.1
20260504171528 70 253 3.0 12.0 0.00 0.00 0.00 56 1008.2
20260504171028 69 229 2.0 12.0 0.00 0.00 0.00 56 1008.2
20260504170527 69 256 1.0 12.0 0.00 0.00 0.00 55 1008.3
20260504151024 65 190 3.0 10.0 0.00 0.00 0.00 60 1009.0
20260504150524 64 245 3.0 12.0 0.00 0.00 0.00 59 1009.1
20260504141023 60 253 0.0 11.0 0.00 0.00 0.00 63 1009.4
20260504140522 60 293 2.0 8.0 0.00 0.00 0.00 65 1009.6
20260504130520 57 252 1.0 7.0 0.00 0.00 0.00 67 1010.0
20260504110516 50 197 0.0 9.0 0.00 0.00 0.00 75 1009.7
20260504100544 50 228 3.0 7.0 0.00 0.00 0.00 74 1009.7